LCSD Weather Reports


Display with metric or nautical units.
time (UTC)temp
F
wind
direction
speed
MPH
gust
MPH
rain 1hr
in
rain 24hr
in
rain mn
in
humidity
%
barometer
mb
20200117224157 32 98 6.0 5.0 0.00 0.00 0.00 79 1032.3
20200117223855 32 156 9.0 6.0 0.00 0.00 0.00 79 1032.4
20200117223556 32 91 9.0 9.0 0.00 0.00 0.00 79 1032.3
20200117223254 32 107 9.0 6.0 0.00 0.00 0.00 79 1032.4
20200117222955 32 98 10.0 11.0 0.00 0.00 0.00 79 1032.2
20200117222654 32 113 6.0 8.0 0.00 0.00 0.00 80 1032.4
20200117222349 32 39 11.0 4.0 0.00 0.00 0.00 80 1032.2
20200117222050 32 104 5.0 8.0 0.00 0.00 0.00 80 1032.3
20200117221750 32 121 10.0 10.0 0.00 0.00 0.00 80 1032.2
20200117221152 32 118 8.0 9.0 0.00 0.00 0.00 79 1032.6
20200117220853 32 100 8.0 16.0 0.00 0.00 0.00 79 1032.6
20200117220554 32 87 5.0 3.0 0.00 0.00 0.00 80 1032.7
20200117220254 32 105 6.0 12.0 0.00 0.00 0.00 80 1032.9
20200117215954 32 107 9.0 6.0 0.00 0.00 0.00 79 1033.0
20200117215348 32 131 6.0 6.0 0.00 0.00 0.00 80 1033.3
20200117215049 32 73 9.0 6.0 0.00 0.00 0.00 79 1033.3
20200117214750 32 89 6.0 0.0 0.00 0.00 0.00 79 1033.7
20200117214450 32 131 10.0 5.0 0.00 0.00 0.00 79 1034.0
20200117213852 32 139 9.0 12.0 0.00 0.00 0.00 79 1034.2
20200117213553 32 118 9.0 6.0 0.00 0.00 0.00 80 1033.9
20200117213254 32 146 7.0 9.0 0.00 0.00 0.00 80 1034.1
20200117212955 32 124 6.0 9.0 0.00 0.00 0.00 80 1033.9
20200117212655 32 124 6.0 0.0 0.00 0.00 0.00 80 1034.1
20200117211754 31 136 10.0 7.0 0.00 0.00 0.00 80 1033.9
20200117211455 31 125 10.0 17.0 0.00 0.00 0.00 80 1034.0
20200117211227 31 94 11.0 9.0 0.00 0.00 0.00 80 1034.2
20200117211155 31 94 11.0 9.0 0.00 0.00 0.00 80 1034.2
20200117210856 31 132 8.0 12.0 0.00 0.00 0.00 81 1033.9
20200117210557 31 128 11.0 17.0 0.00 0.00 0.00 81 1033.8
20200117210258 31 138 5.0 7.0 0.00 0.00 0.00 81 1034.0
20200117205959 31 90 12.0 11.0 0.00 0.00 0.00 81 1033.6
20200117205659 31 115 9.0 12.0 0.00 0.00 0.00 82 1033.6
20200117205354 31 93 8.0 9.0 0.00 0.00 0.00 82 1033.6
20200117205055 31 10 7.0 7.0 0.00 0.00 0.00 82 1033.4
20200117204755 31 100 11.0 18.0 0.00 0.00 0.00 82 1033.9
20200117204456 31 107 10.0 8.0 0.00 0.00 0.00 82 1034.4
20200117204154 31 139 7.0 8.0 0.00 0.00 0.00 83 1034.2
20200117203854 31 89 9.0 7.0 0.00 0.00 0.00 82 1034.3
20200117203555 31 96 7.0 10.0 0.00 0.00 0.00 82 1034.3
20200117203254 31 63 6.0 5.0 0.00 0.00 0.00 82 1034.2
20200117202955 31 44 5.0 6.0 0.00 0.00 0.00 83 1034.2
20200117202656 31 32 10.0 9.0 0.00 0.00 0.00 82 1034.3
20200117202348 31 42 10.0 7.0 0.00 0.00 0.00 82 1034.7
20200117202058 31 39 2.0 0.0 0.00 0.00 0.00 83 1035.1
20200117202048 31 53 6.0 11.0 0.00 0.00 0.00 83 1034.9
20200117201749 31 39 2.0 0.0 0.00 0.00 0.00 83 1035.1
20200117201450 31 108 6.0 8.0 0.00 0.00 0.00 83 1035.1
20200117201151 31 31 8.0 5.0 0.00 0.00 0.00 83 1035.2
20200117200852 31 90 7.0 9.0 0.00 0.00 0.00 83 1035.1
20200117200552 31 93 8.0 0.0 0.00 0.00 0.00 83 1035.4
20200117200253 31 84 2.0 12.0 0.00 0.00 0.00 84 1035.4
20200117195954 30 70 0.0 0.0 0.00 0.00 0.00 84 1035.5
20200117195351 30 76 5.0 0.0 0.00 0.00 0.00 84 1035.7
20200117195051 30 97 10.0 5.0 0.00 0.00 0.00 84 1035.5
20200117194752 30 83 9.0 8.0 0.00 0.00 0.00 84 1035.5
20200117194453 30 14 4.0 8.0 0.00 0.00 0.00 84 1035.6
20200117193853 30 114 9.0 11.0 0.00 0.00 0.00 84 1035.9
20200117193254 30 115 1.0 6.0 0.00 0.00 0.00 84 1036.1
20200117192955 30 100 8.0 8.0 0.00 0.00 0.00 84 1036.1
20200117192656 30 15 9.0 8.0 0.00 0.00 0.00 84 1036.1
20200117192353 30 134 6.0 4.0 0.00 0.00 0.00 84 1036.1
20200117192054 30 125 8.0 10.0 0.00 0.00 0.00 84 1036.3
20200117191754 30 117 10.0 7.0 0.00 0.00 0.00 85 1036.4
20200117191455 30 103 4.0 12.0 0.00 0.00 0.00 85 1036.8
20200117191156 30 98 10.0 6.0 0.00 0.00 0.00 85 1036.9
20200117190900 30 35 7.0 0.0 0.60 0.00 0.00
20200117190857 30 35 7.0 5.0 0.00 0.00 0.00 85 1036.7
20200117190258 30 118 8.0 5.0 0.00 0.00 0.00 85 1037.3
20200117185953 30 70 6.0 7.0 0.00 0.00 0.00 85 1037.1
20200117185347 29 11 5.0 5.0 0.00 0.00 0.00 85 1037.3
20200117185048 29 104 6.0 11.0 0.00 0.00 0.00 86 1037.2
20200117184745 29 131 8.0 6.0 0.00 0.00 0.00 85 1037.3
20200117184446 29 97 8.0 9.0 0.00 0.00 0.00 85 1037.3
20200117184146 29 113 6.0 12.0 0.00 0.00 0.00 86 1037.4
20200117183846 29 72 3.0 6.0 0.00 0.00 0.00 86 1037.6
20200117183547 29 105 3.0 7.0 0.00 0.00 0.00 87 1037.7
20200117183248 29 83 7.0 7.0 0.00 0.00 0.00 86 1037.8
20200117182650 29 107 11.0 7.0 0.00 0.00 0.00 86 1037.9
20200117182347 29 104 4.0 8.0 0.00 0.00 0.00 86 1037.8
20200117182048 29 113 8.0 6.0 0.00 0.00 0.00 86 1037.8
20200117181749 29 80 0.0 7.0 0.00 0.00 0.00 86 1037.8
20200117181450 29 113 5.0 9.0 0.00 0.00 0.00 85 1037.8
20200117181150 29 152 11.0 9.0 0.00 0.00 0.00 85 1037.8
20200117180851 29 105 5.0 10.0 0.00 0.00 0.00 85 1038.0
20200117180551 29 113 6.0 3.0 0.00 0.00 0.00 85 1038.1
20200117180252 29 129 9.0 10.0 0.00 0.00 0.00 85 1038.2
20200117175953 29 131 7.0 10.0 0.00 0.00 0.00 86 1038.2
20200117175653 29 139 8.0 6.0 0.00 0.00 0.00 86 1038.2
20200117175348 30 104 7.0 5.0 0.00 0.00 0.00 86 1038.3
20200117175049 30 127 9.0 9.0 0.00 0.00 0.00 86 1038.4
20200117174750 29 24 1.0 0.0 0.00 0.00 0.00 87 1038.6
20200117174451 29 77 8.0 3.0 0.00 0.00 0.00 87 1038.6
20200117174152 29 120 7.0 7.0 0.00 0.00 0.00 87 1038.6
20200117173853 29 98 6.0 7.0 0.00 0.00 0.00 88 1038.7
20200117173553 29 58 8.0 2.0 0.00 0.00 0.00 88 1038.7
20200117173252 29 110 10.0 6.0 0.00 0.00 0.00 87 1038.7
20200117172651 29 107 4.0 0.0 0.00 0.00 0.00 88 1038.9
20200117172347 29 108 7.0 10.0 0.00 0.00 0.00 88 1039.0
20200117172047 29 115 8.0 4.0 0.00 0.00 0.00 88 1038.9
20200117171748 29 132 5.0 10.0 0.00 0.00 0.00 88 1039.0
20200117171449 29 82 8.0 7.0 0.00 0.00 0.00 89 1039.2
20200117171150 29 108 7.0 3.0 0.00 0.00 0.00 90 1039.3
20200117170851 28 97 6.0 11.0 0.00 0.00 0.00 90 1039.3
20200117170552 28 101 8.0 7.0 0.00 0.00 0.00 89 1039.4
20200117170252 28 79 11.0 9.0 0.00 0.00 0.00 89 1039.5
20200117165952 28 60 8.0 10.0 0.00 0.00 0.00 89 1039.5
20200117165653 28 100 10.0 8.0 0.00 0.00 0.00 90 1039.6
20200117165052 28 138 6.0 7.0 0.00 0.00 0.00 90 1039.8
20200117164752 28 91 11.0 11.0 0.00 0.00 0.00 91 1039.9
20200117164452 28 141 11.0 4.0 0.00 0.00 0.00 91 1039.9
20200117164153 28 153 7.0 11.0 0.00 0.00 0.00 92 1039.9
20200117163854 28 122 9.0 6.0 0.00 0.00 0.00 92 1040.2
20200117163249 28 134 10.0 9.0 0.00 0.00 0.00 93 1040.4
20200117162951 28 96 7.0 11.0 0.00 0.00 0.00 93 1040.5
20200117162651 27 52 8.0 5.0 0.00 0.00 0.00 93 1040.7
20200117162346 27 101 9.0 5.0 0.00 0.00 0.00 93 1040.8
20200117162047 27 117 6.0 11.0 0.00 0.00 0.00 94 1040.9
20200117161747 27 107 6.0 0.0 0.00 0.00 0.00 94 1040.8
20200117161148 27 132 10.0 13.0 0.00 0.00 0.00 94 1040.9
20200117160849 27 108 9.0 9.0 0.00 0.00 0.00 94 1040.9
20200117160549 27 89 7.0 3.0 0.00 0.00 0.00 95 1041.1
20200117160250 27 58 6.0 4.0 0.00 0.00 0.00 95 1041.1
20200117155951 27 125 9.0 8.0 0.00 0.00 0.00 95 1041.1
20200117155647 27 89 8.0 5.0 0.00 0.00 0.00 95 1041.1
20200117155342 27 100 5.0 8.0 0.00 0.00 0.00 95 1041.1
20200117155043 26 128 7.0 8.0 0.00 0.00 0.00 96 1041.1
20200117154744 26 60 5.0 5.0 0.00 0.00 0.00 96 1041.1
20200117154445 26 90 7.0 10.0 0.00 0.00 0.00 96 1041.2
20200117154145 26 125 6.0 10.0 0.00 0.00 0.00 97 1041.2
20200117153845 26 55 9.0 7.0 0.00 0.00 0.00 97 1041.3
20200117153546 26 115 7.0 6.0 0.00 0.00 0.00 97 1041.2
20200117153245 26 94 12.0 9.0 0.00 0.00 0.00 97 1041.3
20200117152946 26 97 12.0 6.0 0.00 0.00 0.00 97 1041.3
20200117152343 25 115 8.0 8.0 0.00 0.00 0.00 97 1041.3
20200117152044 25 49 7.0 7.0 0.00 0.00 0.00 97 1041.3
20200117151745 25 38 10.0 6.0 0.00 0.00 0.00 97 1041.2
20200117151446 25 49 9.0 3.0 0.00 0.00 0.00 98 1041.3
20200117151147 25 120 8.0 10.0 0.00 0.00 0.00 98 1041.3
20200117150846 25 125 11.0 8.0 0.00 0.00 0.00 98 1041.3
20200117150248 25 90 10.0 8.0 0.00 0.00 0.00 98 1041.3
20200117145949 25 94 8.0 5.0 0.00 0.00 0.00 99 1041.4
20200117145650 25 98 10.0 10.0 0.00 0.00 0.00 99 1041.4
20200117145347 25 93 7.0 12.0 0.00 0.00 0.00 100 1041.5
20200117144749 25 72 7.0 9.0 0.00 0.00 0.00 100 1041.5
20200117144450 25 93 8.0 8.0 0.00 0.00 0.00 100 1041.6
20200117144151 25 132 7.0 8.0 0.00 0.00 0.00 100 1041.5
20200117143851 25 101 10.0 9.0 0.00 0.00 0.00 100 1041.6
20200117143250 24 104 6.0 9.0 0.00 0.00 0.00 100 1041.6
20200117142951 24 89 10.0 9.0 0.00 0.00 0.00 100 1041.6
20200117142652 24 98 13.0 11.0 0.00 0.00 0.00 100 1041.6
20200117142345 24 86 7.0 7.0 0.00 0.00 0.00 100 1041.6
20200117142044 24 124 8.0 14.0 0.00 0.00 0.00 100 1041.6
20200117141744 24 124 9.0 8.0 0.00 0.00 0.00 100 1041.6
20200117141445 24 93 8.0 9.0 0.00 0.00 0.00 100 1041.7
20200117140847 24 107 10.0 8.0 0.00 0.00 0.00 100 1041.7
20200117140547 24 42 7.0 6.0 0.00 0.00 0.00 100 1041.7
20200117140247 24 87 8.0 5.0 0.00 0.00 0.00 100 1041.8
20200117135649 24 15 5.0 6.0 0.00 0.00 0.00 100 1041.7
20200117135346 24 86 6.0 6.0 0.00 0.00 0.00 100 1041.8
20200117135046 24 63 6.0 4.0 0.00 0.00 0.00 100 1041.8
20200117134747 24 111 5.0 6.0 0.00 0.00 0.00 100 1041.9
20200117134149 24 52 6.0 8.0 0.00 0.00 0.00 100 1042.0
20200117133850 24 63 5.0 3.0 0.00 0.00 0.00 100 1042.1
20200117133250 24 48 6.0 10.0 0.00 0.00 0.00 100 1042.1
20200117132951 23 155 8.0 3.0 0.00 0.00 0.00 100 1042.0
20200117132652 23 87 6.0 6.0 0.00 0.00 0.00 100 1042.0
20200117132050 23 107 7.0 9.0 0.00 0.00 0.00 100 1042.1
20200117131750 23 120 6.0 7.0 0.00 0.00 0.00 100 1042.1
20200117131451 23 65 7.0 7.0 0.00 0.00 0.00 100 1042.2
20200117131152 23 66 8.0 5.0 0.00 0.00 0.00 100 1042.1
20200117130853 23 75 5.0 6.0 0.00 0.00 0.00 100 1042.2
20200117130554 23 38 6.0 8.0 0.00 0.00 0.00 100 1042.2
20200117130252 23 23 8.0 8.0 0.00 0.00 0.00 100 1042.3
20200117125953 23 63 6.0 6.0 0.00 0.00 0.00 100 1042.2
20200117125654 23 100 7.0 9.0 0.00 0.00 0.00 100 1042.3
20200117125053 23 63 6.0 5.0 0.00 0.00 0.00 100 1042.3
20200117124753 23 103 7.0 8.0 0.00 0.00 0.00 100 1042.3
20200117124454 23 100 6.0 10.0 0.00 0.00 0.00 100 1042.3
20200117124227 23 44 8.0 5.0 0.00 0.00 0.00 100 1042.2
20200117124155 23 44 8.0 5.0 0.00 0.00 0.00 100 1042.2
20200117123856 23 104 8.0 6.0 0.00 0.00 0.00 100 1042.3
20200117123556 23 345 7.0 5.0 0.00 0.00 0.00 100 1042.3
20200117123256 23 134 5.0 6.0 0.00 0.00 0.00 100 1042.3
20200117122957 23 96 5.0 3.0 0.00 0.00 0.00 100 1042.3
20200117122345 23 59 5.0 11.0 0.00 0.00 0.00 100 1042.5
20200117122046 23 55 5.0 7.0 0.00 0.00 0.00 100 1042.5
20200117121747 23 60 7.0 6.0 0.00 0.00 0.00 100 1042.6
20200117121448 23 55 9.0 5.0 0.00 0.00 0.00 100 1042.6
20200117120844 23 23 6.0 6.0 0.00 0.00 0.00 100 1042.6
20200117120545 23 76 10.0 8.0 0.00 0.00 0.00 100 1042.5
20200117120245 23 38 6.0 6.0 0.00 0.00 0.00 100 1042.5
20200117115946 23 60 6.0 0.0 0.00 0.00 0.00 100 1042.4
20200117115646 23 28 8.0 5.0 0.00 0.00 0.00 100 1042.4
20200117115343 23 72 6.0 9.0 0.00 0.00 0.00 100 1042.5
20200117115043 23 94 0.0 9.0 0.00 0.00 0.00 100 1042.4
20200117114742 23 30 0.0 0.0 0.00 0.00 0.00 100 1042.4
20200117114443 23 41 7.0 4.0 0.00 0.00 0.00 100 1042.4
20200117114143 23 0 4.0 2.0 0.00 0.00 0.00 100 1042.3
20200117113844 23 80 5.0 4.0 0.00 0.00 0.00 100 1042.3
20200117113246 23 322 8.0 4.0 0.00 0.00 0.00 100 1042.3
20200117112947 23 86 8.0 7.0 0.00 0.00 0.00 100 1042.4
20200117112647 23 103 8.0 10.0 0.00 0.00 0.00 100 1042.3
20200117112342 23 113 6.0 9.0 0.00 0.00 0.00 100 1042.3
20200117112043 23 39 8.0 8.0 0.00 0.00 0.00 100 1042.3
20200117111744 23 84 5.0 8.0 0.00 0.00 0.00 100 1042.2
20200117111445 23 72 6.0 7.0 0.00 0.00 0.00 100 1042.1
20200117110846 23 252 5.0 5.0 0.00 0.00 0.00 100 1042.2
20200117110547 23 42 5.0 8.0 0.00 0.00 0.00 100 1042.2
20200117110246 23 28 8.0 5.0 0.00 0.00 0.00 100 1042.3
20200117105947 23 75 8.0 9.0 0.00 0.00 0.00 100 1042.4
20200117105647 23 94 6.0 8.0 0.00 0.00 0.00 100 1042.5
20200117105343 23 77 7.0 6.0 0.00 0.00 0.00 100 1042.5
20200117104743 23 32 5.0 0.0 0.00 0.00 0.00 100 1042.4
20200117104444 23 63 8.0 5.0 0.00 0.00 0.00 100 1042.4
20200117103845 23 122 5.0 5.0 0.00 0.00 0.00 100 1042.4
20200117103546 23 75 8.0 11.0 0.00 0.00 0.00 100 1042.4
20200117102943 23 5.0 5.0 0.00 0.00 0.00 1042.4
20200117102941 23 63 5.0 5.0 0.00 0.00 0.00 100 1042.4
20200117102641 23 339 5.0 4.0 0.00 0.00 0.00 100 1042.4
20200117102337 23 93 7.0 12.0 0.00 0.00 0.00 100 1042.4
20200117101741 23 82 4.0 6.0 0.00 0.00 0.00 100 1042.4
20200117101441 23 80 4.0 5.0 0.00 0.00 0.00 100 1042.4
20200117101141 23 359 6.0 4.0 0.00 0.00 0.00 100 1042.3
20200117100842 23 15 2.0 5.0 0.00 0.00 0.00 100 1042.3
20200117100243 23 69 9.0 11.0 0.00 0.00 0.00 100 1042.2
20200117095944 23 73 3.0 6.0 0.00 0.00 0.00 100 1042.3
20200117095648 23 27 6.0 7.0 0.00 0.00 0.00 100 1042.3
20200117095338 23 70 4.0 4.0 0.00 0.00 0.00 100 1042.3
20200117095039 23 41 5.0 3.0 0.00 0.00 0.00 100 1042.3
20200117094739 23 13 7.0 6.0 0.00 0.00 0.00 99 1042.3
20200117094440 23 10 5.0 4.0 0.00 0.00 0.00 99 1042.4
20200117094141 23 65 6.0 7.0 0.00 0.00 0.00 99 1042.4
20200117093842 23 17 5.0 6.0 0.00 0.00 0.00 99 1042.4
20200117093542 23 15 5.0 6.0 0.00 0.00 0.00 99 1042.3
20200117093243 23 38 3.0 8.0 0.00 0.00 0.00 99 1042.3
20200117092944 23 52 0.0 3.0 0.00 0.00 0.00 99 1042.3
20200117092645 23 41 2.0 7.0 0.00 0.00 0.00 98 1042.3
20200117092342 23 72 7.0 6.0 0.00 0.00 0.00 98 1042.3
20200117092042 23 333 7.0 5.0 0.00 0.00 0.00 98 1042.3
20200117091742 23 90 6.0 7.0 0.00 0.00 0.00 98 1042.4
20200117091443 23 72 5.0 9.0 0.00 0.00 0.00 98 1042.4
20200117091144 23 68 5.0 6.0 0.00 0.00 0.00 98 1042.4
20200117090845 24 359 6.0 3.0 0.00 0.00 0.00 98 1042.3
20200117090546 24 6 3.0 0.0 0.00 0.00 0.00 98 1042.3
20200117090245 24 31 3.0 7.0 0.00 0.00 0.00 98 1042.2
20200117085946 24 38 3.0 0.0 0.00 0.00 0.00 98 1042.2
20200117085647 24 28 5.0 8.0 0.00 0.00 0.00 98 1042.2
20200117085337 24 87 2.0 0.0 0.00 0.00 0.00 98 1042.3
20200117085038 24 21 5.0 6.0 0.00 0.00 0.00 98 1042.3
20200117084738 24 6 4.0 3.0 0.00 0.00 0.00 98 1042.4
20200117084437 24 18 6.0 4.0 0.00 0.00 0.00 98 1042.4
20200117084137 24 15 6.0 0.0 0.00 0.00 0.00 98 1042.4
20200117083838 24 59 5.0 0.0 0.00 0.00 0.00 98 1042.5
20200117083539 24 1 5.0 4.0 0.00 0.00 0.00 98 1042.5
20200117083238 24 53 3.0 4.0 0.00 0.00 0.00 98 1042.6
20200117082940 24 328 7.0 3.0 0.00 0.00 0.00 98 1042.7
20200117082640 24 359 6.0 4.0 0.00 0.00 0.00 98 1042.8
20200117082337 24 79 5.0 4.0 0.00 0.00 0.00 98 1042.9
20200117082035 24 38 5.0 8.0 0.00 0.00 0.00 98 1042.9
20200117081733 24 48 5.0 0.0 0.00 0.00 0.00 98 1042.9
20200117081434 24 56 6.0 6.0 0.00 0.00 0.00 99 1042.9
20200117081135 24 89 3.0 6.0 0.00 0.00 0.00 99 1042.9
20200117080836 24 359 3.0 0.0 0.00 0.00 0.00 99 1042.8
20200117080537 24 59 5.0 5.0 0.00 0.00 0.00 99 1042.7
20200117080238 24 17 5.0 7.0 0.00 0.00 0.00 99 1042.7
20200117075938 24 31 2.0 5.0 0.00 0.00 0.00 99 1042.7
20200117075639 24 15 9.0 6.0 0.00 0.00 0.00 99 1042.7
20200117075336 24 18 6.0 6.0 0.00 0.00 0.00 99 1042.7
20200117075036 24 11 5.0 5.0 0.00 0.00 0.00 99 1042.7
20200117074737 24 17 4.0 7.0 0.00 0.00 0.00 99 1042.7
20200117074437 24 18 6.0 5.0 0.00 0.00 0.00 99 1042.7
20200117074138 24 35 6.0 5.0 0.00 0.00 0.00 99 1042.7
20200117073839 24 17 3.0 6.0 0.00 0.00 0.00 99 1042.6
20200117073540 24 27 1.0 0.0 0.00 0.00 0.00 99 1042.5
20200117073240 24 11 3.0 0.0 0.00 0.00 0.00 99 1042.5
20200117072940 24 7 4.0 3.0 0.00 0.00 0.00 99 1042.4
20200117072640 24 39 5.0 5.0 0.00 0.00 0.00 99 1042.4
20200117072333 24 32 4.0 9.0 0.00 0.00 0.00 99 1042.2
20200117071735 24 8 5.0 4.0 0.00 0.00 0.00 99 1042.0
20200117071136 24 28 2.0 5.0 0.00 0.00 0.00 99 1042.0
20200117070837 24 11 7.0 5.0 0.00 0.00 0.00 99 1042.0
20200117070538 24 343 5.0 4.0 0.00 0.00 0.00 99 1042.0
20200117070239 24 27 6.0 3.0 0.00 0.00 0.00 99 1042.0
20200117065940 24 346 7.0 4.0 0.00 0.00 0.00 99 1041.9
20200117065640 24 25 6.0 7.0 0.00 0.00 0.00 99 1042.0
20200117065330 24 11 6.0 3.0 0.00 0.00 0.00 99 1042.0
20200117064730 24 3 5.0 6.0 0.00 0.00 0.00 99 1042.1
20200117064431 24 18 5.0 7.0 0.00 0.00 0.00 99 1042.2
20200117064131 24 18 5.0 5.0 0.00 0.00 0.00 99 1042.2
20200117063832 24 347 4.0 3.0 0.00 0.00 0.00 99 1042.2
20200117063533 24 3 4.0 5.0 0.00 0.00 0.00 99 1042.1
20200117063229 24 7 2.0 0.0 0.00 0.00 0.00 98 1042.1
20200117062930 24 11 5.0 5.0 0.00 0.00 0.00 98 1042.1
20200117062630 24 330 3.0 0.0 0.00 0.00 0.00 98 1042.1
20200117062325 24 13 5.0 3.0 0.00 0.00 0.00 98 1042.1
20200117062026 24 332 6.0 6.0 0.00 0.00 0.00 98 1042.0
20200117061727 24 46 5.0 5.0 0.00 0.00 0.00 98 1041.9
20200117061428 24 1 6.0 3.0 0.00 0.00 0.00 98 1042.0
20200117061127 24 25 6.0 7.0 0.00 0.00 0.00 98 1042.0
20200117060827 25 11 6.0 6.0 0.00 0.00 0.00 98 1042.1
20200117060228 25 23 5.0 6.0 0.00 0.00 0.00 98 1042.2
20200117055929 25 11 7.0 6.0 0.00 0.00 0.00 98 1042.2
20200117055630 25 18 5.0 7.0 0.00 0.00 0.00 98 1042.2
20200117055326 25 359 4.0 3.0 0.00 0.00 0.00 97 1042.2
20200117055027 25 359 1.0 0.0 0.00 0.00 0.00 97 1042.3
20200117054728 25 24 5.0 5.0 0.00 0.00 0.00 97 1042.3
20200117054429 25 343 5.0 5.0 0.00 0.00 0.00 97 1042.2
20200117054130 25 356 5.0 3.0 0.00 0.00 0.00 97 1042.3
20200117053830 25 8 4.0 5.0 0.00 0.00 0.00 97 1042.3
20200117053529 25 10 4.0 3.0 0.00 0.00 0.00 97 1042.3
20200117053227 25 44 4.0 3.0 0.00 0.00 0.00 97 1042.3
20200117052928 25 8 0.0 0.0 0.00 0.00 0.00 97 1042.3
20200117052629 25 8 2.0 0.0 0.00 0.00 0.00 97 1042.3
20200117052325 25 13 3.0 3.0 0.00 0.00 0.00 96 1042.3
20200117052026 25 11 3.0 3.0 0.00 0.00 0.00 96 1042.3
20200117051727 25 13 1.0 6.0 0.00 0.00 0.00 96 1042.3
20200117051428 25 6 5.0 3.0 0.00 0.00 0.00 96 1042.2
20200117051129 25 18 4.0 3.0 0.00 0.00 0.00 96 1042.3
20200117050530 25 10 5.0 5.0 0.00 0.00 0.00 96 1042.1
20200117050231 25 20 4.0 3.0 0.00 0.00 0.00 96 1042.0
20200117045928 26 7 6.0 3.0 0.00 0.00 0.00 96 1042.0
20200117045629 25 20 7.0 9.0 0.00 0.00 0.00 96 1042.0
20200117045324 26 17 4.0 6.0 0.00 0.00 0.00 96 1042.0
20200117045022 26 1 0.0 6.0 0.00 0.00 0.00 96 1042.0
20200117044723 26 3 6.0 4.0 0.00 0.00 0.00 96 1041.9
20200117044424 26 14 4.0 5.0 0.00 0.00 0.00 96 1041.8
20200117044126 0 11 5.0 7.0 0.00 0.00 0.00 96 1041.7
20200117043826 26 20 7.0 6.0 0.00 0.00 0.00 96 1041.7
20200117043527 26 42 6.0 6.0 0.00 0.00 0.00 96 1041.7
20200117043224 26 27 6.0 6.0 0.00 0.00 0.00 96 1041.7
20200117042925 26 11 4.0 6.0 0.00 0.00 0.00 96 1041.6
20200117042626 26 20 6.0 7.0 0.00 0.00 0.00 96 1041.6
20200117042324 26 20 6.0 6.0 0.00 0.00 0.00 96 1041.5
20200117042023 26 28 7.0 8.0 0.00 0.00 0.00 96 1041.4
20200117041724 26 31 6.0 10.0 0.00 0.00 0.00 95 1041.4
20200117041424 26 25 6.0 6.0 0.00 0.00 0.00 95 1041.3
20200117041125 26 25 7.0 7.0 0.00 0.00 0.00 95 1041.3
20200117040826 26 21 7.0 8.0 0.00 0.00 0.00 95 1041.4
20200117040527 26 350 6.0 7.0 0.00 0.00 0.00 95 1041.4
20200117040226 26 7 5.0 9.0 0.00 0.00 0.00 95 1041.4
20200117035927 26 8 8.0 7.0 0.00 0.00 0.00 95 1041.4
20200117035628 26 20 8.0 7.0 0.00 0.00 0.00 95 1041.4
20200117035324 26 7 8.0 9.0 0.00 0.00 0.00 95 1041.3
20200117035023 27 7 8.0 3.0 0.00 0.00 0.00 95 1041.3
20200117034723 27 37 8.0 6.0 0.00 0.00 0.00 95 1041.3
20200117034424 27 17 8.0 10.0 0.00 0.00 0.00 95 1041.3
20200117034125 27 353 7.0 7.0 0.00 0.00 0.00 96 1041.4
20200117033826 27 0 6.0 7.0 0.00 0.00 0.00 96 1041.4
20200117033527 27 56 7.0 8.0 0.00 0.00 0.00 96 1041.5
20200117033228 27 21 7.0 7.0 0.00 0.00 0.00 95 1041.5
20200117032928 27 6 7.0 7.0 0.00 0.00 0.00 95 1041.5
20200117032628 27 31 7.0 5.0 0.00 0.00 0.00 95 1041.5
20200117032323 27 32 2.0 5.0 0.00 0.00 0.00 95 1041.6
20200117032020 27 8 5.0 6.0 0.00 0.00 0.00 94 1041.6
20200117031721 27 4 8.0 6.0 0.00 0.00 0.00 94 1041.6
20200117031421 27 20 5.0 7.0 0.00 0.00 0.00 94 1041.6
20200117031122 28 24 8.0 8.0 0.00 0.00 0.00 94 1041.5
20200117030823 28 27 8.0 12.0 0.00 0.00 0.00 94 1041.5
20200117030224 28 21 6.0 5.0 0.00 0.00 0.00 93 1041.4
20200117025925 28 15 6.0 8.0 0.00 0.00 0.00 93 1041.5
20200117025622 28 39 7.0 4.0 0.00 0.00 0.00 93 1041.4
20200117025317 28 318 8.0 10.0 0.00 0.00 0.00 93 1041.5
20200117025018 28 349 9.0 9.0 0.00 0.00 0.00 93 1041.6
20200117024420 28 25 8.0 6.0 0.00 0.00 0.00 92 1041.5
20200117024120 28 31 9.0 8.0 0.00 0.00 0.00 92 1041.5
20200117023821 28 307 7.0 7.0 0.00 0.00 0.00 92 1041.5
20200117023222 28 14 5.0 6.0 0.00 0.00 0.00 92 1041.3
20200117022923 28 31 9.0 12.0 0.00 0.00 0.00 92 1041.3
20200117022624 28 24 9.0 7.0 0.00 0.00 0.00 92 1041.2
20200117022317 28 37 8.0 7.0 0.00 0.00 0.00 91 1041.1
20200117022018 28 15 7.0 7.0 0.00 0.00 0.00 91 1041.1
20200117021719 28 336 7.0 6.0 0.00 0.00 0.00 91 1041.1
20200117021121 28 1 7.0 6.0 0.00 0.00 0.00 91 1041.2
20200117020522 28 328 6.0 6.0 0.00 0.00 0.00 90 1041.1
20200117020222 28 329 7.0 11.0 0.00 0.00 0.00 90 1041.1
20200117015923 28 357 6.0 7.0 0.00 0.00 0.00 90 1041.1
20200117015623 28 30 8.0 9.0 0.00 0.00 0.00 90 1041.0
20200117015319 28 349 9.0 9.0 0.00 0.00 0.00 89 1041.1
20200117015055 29 318 8.0 6.0 0.00 0.00 0.00 89 1041.0
20200117015018 29 318 8.0 6.0 0.00 0.00 0.00 89 1041.0
20200117014719 29 343 7.0 7.0 0.00 0.00 0.00 89 1041.0
20200117014418 29 319 7.0 9.0 0.00 0.00 0.00 89 1041.0
20200117014119 29 312 7.0 5.0 0.00 0.00 0.00 88 1041.0
20200117013819 29 339 5.0 3.0 0.00 0.00 0.00 88 1041.0
20200117013520 29 359 7.0 6.0 0.00 0.00 0.00 88 1040.9
20200117013221 29 345 8.0 10.0 0.00 0.00 0.00 88 1041.0
20200117012623 29 321 6.0 6.0 0.00 0.00 0.00 88 1040.9
20200117012317 29 336 7.0 6.0 0.00 0.00 0.00 88 1040.9
20200117012017 29 346 7.0 7.0 0.00 0.00 0.00 87 1040.8
20200117011718 29 318 7.0 10.0 0.00 0.00 0.00 87 1040.8
20200117011415 29 311 6.0 5.0 0.00 0.00 0.00 87 1040.8
20200117011116 29 340 7.0 6.0 0.00 0.00 0.00 86 1040.8
20200117010817 29 352 7.0 5.0 0.00 0.00 0.00 86 1040.9
20200117010517 29 294 7.0 7.0 0.00 0.00 0.00 86 1040.9
20200117010218 29 307 7.0 7.0 0.00 0.00 0.00 86 1040.8
20200117005620 30 276 7.0 8.0 0.00 0.00 0.00 85 1040.8
20200117005316 30 285 6.0 8.0 0.00 0.00 0.00 85 1040.8
20200117005017 30 305 6.0 8.0 0.00 0.00 0.00 84 1040.8
20200117004117 30 287 6.0 5.0 0.00 0.00 0.00 83 1040.5
20200117003512 30 293 7.0 8.0 0.00 0.00 0.00 83 1040.5
20200117003211 30 335 7.0 8.0 0.00 0.00 0.00 82 1040.5
20200117002911 30 318 8.0 10.0 0.00 0.00 0.00 82 1040.3
20200117002611 31 312 7.0 9.0 0.00 0.00 0.00 82 1040.2
20200117002307 31 302 7.0 4.0 0.00 0.00 0.00 82 1040.2
20200117001708 31 285 7.0 9.0 0.00 0.00 0.00 81 1040.0
20200117001408 31 298 6.0 5.0 0.00 0.00 0.00 80 1039.9
20200117001109 31 300 5.0 4.0 0.00 0.00 0.00 80 1039.9
20200117000808 31 24 8.0 6.0 0.00 0.00 0.00 80 1039.8
20200117000508 31 45 6.0 7.0 0.00 0.00 0.00 79 1039.7
20200117000209 31 312 6.0 5.0 0.00 0.00 0.00 79 1039.7
20200116235910 31 284 7.0 9.0 0.00 0.00 0.00 79 1039.6
20200116235611 32 15 7.0 8.0 0.00 0.00 0.00 78 1039.6
20200116235307 32 240 4.0 4.0 0.00 0.00 0.00 78 1039.6
20200116235008 32 295 4.0 8.0 0.00 0.00 0.00 78 1039.5
20200116234709 32 270 6.0 0.0 0.00 0.00 0.00 77 1039.5
20200116234410 32 295 4.0 5.0 0.00 0.00 0.00 76 1039.5
20200116234110 32 322 5.0 5.0 0.00 0.00 0.00 76 1039.5
20200116233811 32 27 5.0 6.0 0.00 0.00 0.00 75 1039.4
20200116233512 33 10 5.0 0.0 0.00 0.00 0.00 75 1039.3
20200116233213 33 326 2.0 3.0 0.00 0.00 0.00 74 1039.3
20200116232914 33 359 3.0 4.0 0.00 0.00 0.00 74 1039.3
20200116232615 33 308 2.0 3.0 0.00 0.00 0.00 74 1039.4
20200116232307 33 285 3.0 0.0 0.00 0.00 0.00 73 1039.4
20200116232006 33 345 5.0 5.0 0.00 0.00 0.00 73 1039.4
20200116231408 34 302 2.0 4.0 0.00 0.00 0.00 72 1039.2
20200116231109 34 278 0.0 0.0 0.00 0.00 0.00 72 1039.2
20200116230809 34 278 0.0 0.0 0.00 0.00 0.00 72 1039.1
20200116230510 34 278 3.0 0.0 0.00 0.00 0.00 71 1039.0
20200116230207 34 350 0.0 0.0 0.00 0.00 0.00 71 1038.9
20200116225908 34 350 4.0 0.0 0.00 0.00 0.00 71 1038.8
20200116225609 34 15 0.0 0.0 0.00 0.00 0.00 70 1038.8
20200116225303 34 273 1.0 0.0 0.00 0.00 0.00 70 1038.8
20200116225004 35 255 2.0 0.0 0.00 0.00 0.00 70 1038.8
20200116224704 35 288 2.0 0.0 0.00 0.00 0.00 69 1038.7